User: anonymous   Login
Location: Riverside
(39.1734°N, 77.8561°W)
Time: 11:19:51
(UTC+00:00)
Language:

Hubble Space Telescope - Orbit

View from above orbital plane
View from above orbital plane
View from above satellite
View from above satellite

Ground track
Ground track

The orbit data is extracted from the following two-line orbital elements,

1 20580U 90037B   19340.76026203 +.00000326 +00000-0 +88359-5 0  9996
2 20580 028.4680 160.6893 0002717 163.4166 322.4853 15.09308510426676
Epoch (UTC): 06 December 2019 18:14:46
Eccentricity: 0.0002717
inclination: 28.4680°
perigee height: 536 km
apogee height: 540 km
right ascension of ascending node: 160.6893°
argument of perigee: 163.4166°
revolutions per day: 15.09308510
mean anomaly at epoch: 322.4853°
orbit number at epoch: 42667

The dashed part of the orbit path shows where the satellite is in the earth's shadow,  

DLR